Retour au catalogue

COSMOS 2251 DEB

ActifLEO
NORAD 34574·DEBRIS·🇷🇺 Russia

Lancé Jun 16, 1993 depuis Plesetsk Cosmodrome

Loading…

Prochains Passages (prochaines 24 heures)

TLE

FraisSource: Space-Track

Époque: Sep 14, 2026, 22:01 UTC

1 34574U 93036VL  26257.91744661  .00003737  00000-0  55560-3 0  9998
2 34574  74.0658 226.4331 0063938 178.2307 213.3515 14.73952601928448

Suivez COSMOS 2251 DEB en temps réel avec AllMySat

Download on the App Store